Stations météo

réclame
Mon MeteoGroup
Kinloss, Grande-Bretagne (3066): Température de l'air & dewpoint: 10.07.2019 15:00:00 - 16.07.2019 15:00:00 (BST)Kinloss, Grande-Bretagne (3066): Température de l'air -20cm & Température de l'air -100cm: 10.07.2019 15:00:00 - 16.07.2019 15:00:00 (BST)Kinloss, Grande-Bretagne (3066): Vitesse du vent: 10.07.2019 15:00:00 - 16.07.2019 15:00:00 (BST)Kinloss, Grande-Bretagne (3066): Direction du vent: 10.07.2019 15:00:00 - 16.07.2019 15:00:00 (BST)Kinloss, Grande-Bretagne (3066): reduced air pressure: 10.07.2019 15:00:00 - 16.07.2019 15:00:00 (BST)Kinloss, Grande-Bretagne (3066): visibility: 10.07.2019 15:00:00 - 16.07.2019 15:00:00 (BST)Kinloss, Grande-Bretagne (3066): Ensoleillement: 10.07.2019 15:00:00 - 16.07.2019 15:00:00 (BST)Kinloss, Grande-Bretagne (3066): Quantités de précipitations: 10.07.2019 15:00:00 - 16.07.2019 15:00:00 (BST)
Date & Time tt [°C] td [°C] tt -20cm [°C] tt -100cm [°C] ff [km/h] ff [knt] dd ppp [hPa] vv [km] sd [min] rr [mm]
16.07.2019 15:00:00 20,4 14,2 - - 13 7 W 1014,8 35 12 -
16.07.2019 14:00:00 21,1 14,3 - - 11 6 W 1014,9 35 12 -
16.07.2019 13:00:00 19,3 13,9 - - 15 8 W 1015,4 30 0 -
16.07.2019 12:00:00 19,7 14,4 - - 9 5 N 1015,4 50 30 -
16.07.2019 11:00:00 19,4 14,8 - - 8 4 N 1015,6 35 60 -
16.07.2019 10:00:00 16,2 13,0 - - 5 3 NE 1016,1 45 30 -
16.07.2019 09:00:00 15,3 12,5 - - 4 2 WNW 1016,5 35 12 0,0
16.07.2019 08:00:00 13,8 12,0 - - 5 3 SW 1016,6 45 30 0,0
16.07.2019 07:00:00 12,8 11,8 - - 5 3 WSW 1017,0 50 0 0,0
16.07.2019 06:00:00 11,9 11,0 - - 8 4 WSW 1017,1 50 0 0,0
16.07.2019 05:00:00 11,6 10,9 - - 8 4 SSW 1017,4 50 0 0,0
16.07.2019 04:00:00 12,6 11,7 - - 8 4 SW 1017,8 29 0 0,0
16.07.2019 03:00:00 13,3 12,2 - - 11 6 SW 1018,1 30 0 0,0
16.07.2019 02:00:00 13,4 12,3 - - 13 7 WSW 1018,5 35 0 0,0
16.07.2019 01:00:00 13,2 12,3 - - 5 3 WNW 1018,7 30 - 0,0
16.07.2019 00:00:00 13,3 12,5 - - 9 5 W 1018,9 30 0 0,0
15.07.2019 23:00:00 13,3 12,4 - - 5 3 NW 1019,2 27 0 0,0
15.07.2019 22:00:00 13,5 12,5 - - 11 6 NNE 1019,2 30 0 0,0
15.07.2019 21:00:00 14,4 12,8 - - 13 7 NNE 1018,8 35 0 0,0
15.07.2019 20:00:00 15,3 12,9 - - 15 8 NNE 1018,7 45 6 0,0
15.07.2019 19:00:00 19,6 13,2 - - 15 8 NE 1018,7 45 54 0,0
15.07.2019 18:00:00 20,4 13,1 - - 18 10 ENE 1018,9 35 60 0,0
15.07.2019 17:00:00 20,0 13,4 - - 16 9 E 1019,5 27 60 0,0
15.07.2019 16:00:00 19,7 14,3 - - 16 9 ENE 1020,0 11 60 0,0
15.07.2019 15:00:00 20,0 14,6 - - 16 9 NE 1020,4 30 60 0,0
15.07.2019 14:00:00 18,9 14,7 - - 15 8 NNE 1020,8 20 60 0,0
15.07.2019 13:00:00 17,3 13,7 - - 16 9 NNE 1021,0 40 60 0,0
15.07.2019 12:00:00 16,1 12,3 - - 13 7 N 1021,4 40 60 0,0
15.07.2019 11:00:00 15,4 12,4 - - 15 8 N 1021,9 30 60 0,0
15.07.2019 10:00:00 14,9 11,6 15,0 12,7 9 5 N 1022,4 23 60 0,0
15.07.2019 09:00:00 15,2 11,5 - - 4 2 ESE 1022,7 23 60 0,0
15.07.2019 08:00:00 12,8 11,1 - - 2 1 SW 1022,9 20 60 0,0
15.07.2019 07:00:00 10,2 9,9 - - 5 3 W 1023,1 26 60 0,0
15.07.2019 06:00:00 8,6 8,5 - - 2 1 SSW 1023,4 35 36 0,0
15.07.2019 05:00:00 7,8 7,5 - - 4 2 S 1023,8 26 0 0,0
15.07.2019 04:00:00 8,0 7,6 - - 0 0 N 1023,9 15 0 0,0
15.07.2019 03:00:00 8,4 7,7 - - 5 3 E 1024,3 2,4 0 0,0
15.07.2019 02:00:00 10,4 9,6 - - 11 6 E 1024,7 40 0 0,0
15.07.2019 01:00:00 10,3 9,7 - - 11 6 E 1024,7 50 - 0,0
15.07.2019 00:00:00 10,0 9,1 - - 8 4 ENE 1024,7 35 0 0,0
14.07.2019 23:00:00 11,7 10,5 - - 11 6 E 1024,6 50 0 0,0
14.07.2019 22:00:00 13,1 10,9 - - 16 9 ENE 1024,5 50 48 0,0
14.07.2019 21:00:00 16,0 10,6 - - 9 5 ENE 1024,4 50 60 0,0
14.07.2019 20:00:00 17,2 10,3 - - 8 4 E 1024,5 50 60 0,0
14.07.2019 19:00:00 17,3 10,1 - - 9 5 E 1024,6 29 60 0,0
14.07.2019 18:00:00 16,8 10,1 - - 11 6 NE 1025,1 35 60 0,0
14.07.2019 17:00:00 16,8 9,9 - - 9 5 N 1025,4 30 60 0,0
14.07.2019 16:00:00 17,5 11,7 - - 15 8 NNW 1025,7 45 42 0,0
14.07.2019 15:00:00 16,6 11,0 - - 9 5 W 1026,0 50 0 0,0
14.07.2019 14:00:00 15,9 11,2 - - 11 6 NW 1026,1 50 0 0,0
14.07.2019 13:00:00 15,1 10,6 - - 15 8 NNW 1026,3 45 0 0,0
14.07.2019 12:00:00 15,2 10,5 - - 11 6 NNW 1026,1 45 0 0,0
14.07.2019 11:00:00 14,9 10,6 - - 9 5 WNW 1026,2 35 0 0,0
14.07.2019 10:00:00 14,4 10,5 15,0 12,7 8 4 NNW 1026,2 45 0 0,0
14.07.2019 09:00:00 13,6 10,6 - - 9 5 W 1026,2 45 0 0,0
14.07.2019 08:00:00 12,9 10,8 - - 8 4 W 1026,1 45 0 0,0
14.07.2019 07:00:00 12,2 10,3 - - 5 3 SW 1026,0 50 0 0,0
14.07.2019 06:00:00 11,5 10,0 - - 8 4 SW 1025,7 45 0 0,0
14.07.2019 05:00:00 11,1 9,7 - - 9 5 WSW 1025,8 50 0 0,0
14.07.2019 04:00:00 10,8 9,6 - - 8 4 WSW 1025,8 50 0 0,0
14.07.2019 03:00:00 11,8 10,1 - - 11 6 WSW 1025,9 45 0 0,0
14.07.2019 02:00:00 12,1 10,1 - - 5 3 W 1026,0 50 0 0,0
14.07.2019 01:00:00 12,2 9,8 - - 11 6 WNW 1025,8 50 - 0,0
14.07.2019 00:00:00 12,5 9,8 - - 18 10 WNW 1025,6 50 0 0,0
13.07.2019 23:00:00 13,3 10,8 - - 11 6 WNW 1025,6 50 0 0,0
13.07.2019 22:00:00 13,9 11,0 - - 16 9 WNW 1025,3 50 0 0,0
13.07.2019 21:00:00 14,1 11,3 - - 18 10 NW 1025,0 40 0 0,0
13.07.2019 20:00:00 14,3 11,6 - - 22 12 WNW 1024,8 40 0 0,0
13.07.2019 19:00:00 15,1 11,8 - - 15 8 WNW 1024,5 50 0 0,0
13.07.2019 18:00:00 15,6 11,7 - - 18 10 NW 1024,1 45 0 0,2
13.07.2019 17:00:00 16,2 12,4 - - 21 11 WNW 1023,8 30 0 0,0
13.07.2019 16:00:00 16,4 12,3 - - 26 14 NW 1023,7 30 0 0,0
13.07.2019 15:00:00 16,8 12,3 - - 18 10 WNW 1023,3 40 0 0,0
13.07.2019 14:00:00 16,5 12,1 - - 21 11 WNW 1023,2 35 12 0,0
13.07.2019 13:00:00 17,0 12,2 - - 22 12 WNW 1023,0 23 54 0,0
13.07.2019 12:00:00 16,2 13,2 - - 16 9 NW 1022,9 45 6 0,0
13.07.2019 11:00:00 15,1 13,6 - - 15 8 W 1022,8 35 0 0,4
13.07.2019 10:00:00 16,4 13,4 15,0 12,7 15 8 WNW 1022,5 45 0 0,0
13.07.2019 09:00:00 15,7 13,2 - - 15 8 NW 1022,3 35 0 0,0
13.07.2019 08:00:00 15,1 13,5 - - 11 6 W 1021,9 35 0 0,0
13.07.2019 07:00:00 14,5 13,2 - - 11 6 W 1021,6 50 0 0,0
13.07.2019 06:00:00 13,9 13,5 - - 8 4 W 1021,1 13 0 0,0
13.07.2019 05:00:00 13,6 13,2 - - 2 1 WSW 1021,0 10 0 0,0
13.07.2019 04:00:00 13,9 13,2 - - 8 4 SW 1021,0 17 0 0,0
13.07.2019 03:00:00 13,5 13,1 - - 8 4 WSW 1021,0 9 0 0,0
13.07.2019 02:00:00 13,4 12,9 - - 5 3 WSW 1020,7 13 0 0,0
13.07.2019 01:00:00 13,3 12,8 - - 4 2 SW 1020,7 12 - 0,0
13.07.2019 00:00:00 13,0 12,3 - - 2 1 SSE 1020,4 13 0 0,0
12.07.2019 23:00:00 12,9 12,3 - - 2 1 E 1020,1 12 0 0,0
12.07.2019 22:00:00 13,0 12,2 - - 8 4 ENE 1019,8 13 0 0,0
12.07.2019 21:00:00 13,9 11,9 - - 8 4 NE 1019,3 28 0 0,0
12.07.2019 20:00:00 14,4 12,0 - - 9 5 ENE 1018,6 45 0 0,0
12.07.2019 19:00:00 14,5 12,4 - - 9 5 NNE 1018,4 30 0 0,0
12.07.2019 18:00:00 15,2 13,2 - - 13 7 NNE 1017,9 40 0 0,0
12.07.2019 17:00:00 15,5 13,0 - - 9 5 ESE 1017,6 28 0 0,0
12.07.2019 16:00:00 15,1 13,1 - - 11 6 ENE 1017,2 30 0 0,0
12.07.2019 15:00:00 15,0 13,3 - - 9 5 ENE 1016,9 35 0 0,0
12.07.2019 14:00:00 14,7 13,0 - - 8 4 NNE 1016,6 35 0 0,0
12.07.2019 13:00:00 14,3 12,7 - - 8 4 NE 1016,3 50 0 0,0
12.07.2019 12:00:00 13,4 13,1 - - 9 5 NE 1015,9 4,7 0 0,2
12.07.2019 11:00:00 13,3 13,1 - - 11 6 NE 1015,2 3,2 0 0,2
12.07.2019 10:00:00 13,0 12,8 15,2 12,5 8 4 NE 1014,8 4,7 0 0,0
12.07.2019 09:00:00 13,0 12,8 - - 9 5 NE 1014,1 6 0 0,0
12.07.2019 08:00:00 13,0 12,8 - - 8 4 NE 1013,5 19 0 0,0
12.07.2019 07:00:00 12,9 12,7 - - 9 5 N 1013,0 30 0 0,2
12.07.2019 06:00:00 13,1 13,0 - - 9 5 N 1012,4 12 0 0,0
12.07.2019 05:00:00 13,5 13,4 - - 8 4 NNW 1011,8 9 0 0,0
12.07.2019 04:00:00 13,6 13,5 - - 8 4 N 1011,4 7 0 0,0
12.07.2019 03:00:00 13,8 13,7 - - 8 4 NW 1011,0 12 0 0,8
12.07.2019 02:00:00 13,8 13,7 - - 8 4 N 1010,5 0,9 0 0,2
12.07.2019 01:00:00 13,9 13,8 - - 8 4 N 1010,1 3,3 - 0,0
12.07.2019 00:00:00 13,9 13,8 - - 4 2 NNW 1010,0 5 0 0,2
11.07.2019 23:00:00 14,0 13,9 - - 4 2 NW 1009,9 5 0 0,0
11.07.2019 22:00:00 14,1 14,0 - - 5 3 NNW 1009,5 5 0 0,0
11.07.2019 21:00:00 14,4 14,2 - - 4 2 NW 1008,9 2,8 0 0,0
11.07.2019 20:00:00 14,1 14,0 - - 4 2 N 1008,8 10 0 0,0
11.07.2019 19:00:00 14,2 14,0 - - 13 7 NNW 1008,6 2,9 0 0,0
11.07.2019 18:00:00 14,9 14,7 - - 9 5 NNE 1008,5 8 0 0,2
11.07.2019 17:00:00 14,8 14,6 - - 5 3 NE 1008,2 6 0 0,8
11.07.2019 16:00:00 14,9 14,1 - - 15 8 NW 1008,2 7 0 0,0
11.07.2019 15:00:00 17,1 15,2 - - 11 6 N 1007,3 40 0 0,0
11.07.2019 14:00:00 17,2 15,7 - - 15 8 N 1007,7 35 30 0,0
11.07.2019 13:00:00 16,7 15,8 - - 9 5 N 1007,4 19 24 0,0
11.07.2019 12:00:00 16,6 15,9 - - 9 5 N 1007,8 24 6 0,0
11.07.2019 11:00:00 16,1 16,0 - - 8 4 NNW 1008,1 2,0 0 0,0
11.07.2019 10:00:00 15,1 15,1 15,0 12,5 5 3 N 1008,3 2,1 0 0,0
11.07.2019 09:00:00 14,9 14,8 - - 8 4 N 1008,2 0,3 0 0,0
11.07.2019 08:00:00 14,5 14,5 - - 8 4 N 1008,2 0,2 0 0,0
11.07.2019 07:00:00 15,2 15,2 - - 2 1 SW 1008,1 26 0 0,0
11.07.2019 06:00:00 14,5 14,4 - - 2 1 NNW 1008,3 0,6 0 0,0
11.07.2019 05:00:00 14,5 14,4 - - 4 2 ENE 1008,5 0,5 0 0,2
11.07.2019 04:00:00 14,7 14,6 - - 4 2 S 1008,9 6 0 0,0
11.07.2019 03:00:00 14,4 14,2 - - 2 1 ESE 1009,3 3,2 0 0,0
11.07.2019 02:00:00 14,6 14,4 - - 4 2 E 1009,7 7 0 0,6
11.07.2019 01:00:00 15,0 14,7 - - 4 2 NW 1009,9 6 - 0,0
11.07.2019 00:00:00 15,5 15,1 - - 9 5 WSW 1010,5 15 0 0,0
10.07.2019 23:00:00 16,3 15,9 - - 9 5 WSW 1010,5 45 0 1,8
10.07.2019 22:00:00 16,3 15,7 - - 13 7 SSW 1010,6 8 0 2,2
10.07.2019 21:00:00 17,3 16,1 - - 5 3 S 1010,8 50 0 0,2
10.07.2019 20:00:00 18,7 17,7 - - 8 4 ESE 1010,9 22 0 0,4
10.07.2019 19:00:00 19,0 17,9 - - 11 6 E 1011,1 50 0 0,0
10.07.2019 18:00:00 18,9 17,1 - - 11 6 ESE 1011,5 30 0 0,4
10.07.2019 17:00:00 18,5 17,1 - - 5 3 ENE 1011,9 40 0 0,0
10.07.2019 16:00:00 17,9 16,8 - - 8 4 E 1012,1 30 0 2,4
10.07.2019 15:00:00 17,1 16,0 - - 8 4 S 1012,7 3,8 0 4,2

tt = Température de l'air
td = dewpoint
tt -20cm = Température de l'air -20cm
tt -100cm = Température de l'air -100cm
ff = Vitesse du vent
dd = Direction du vent
ppp = reduced air pressure
vv = visibility
sd = Ensoleillement
rr = Quantités de précipitations

stations d'obs. à proximité